星链-1243 (STARLINK-1243 )

导读 | 豆包AI

STARLINK-1243是美国SpaceX星链(Starlink)星座中的卫星,于2020年2月17日发射。星链计划旨在搭建全球卫星互联网络,为全球提供高速卫星互联网服务,这款卫星是星链早期组网的重要组成部分,运行在近地轨道,搭载相关通信设备,支撑星座低延迟通信服务。作为星链星座组网节点,它和其他卫星协同工作,推动全球卫星互联网覆盖建设,是太空互联网基础设施的组成部分。

基本信息
目录编号:
45234
目录名称:
STARLINK-1243
国际标识:
2020-012BJ
轨道中心:
EARTH
卫星名称:
星链-1243
卫星全名:
星链-1243 (STARLINK-1243 )
卫星状态:
已陨落 最后检测时间 2024-09-01
发射日期:
2020-02-17 UTC
国别 :
美国 (US)
星等 :
--
轨道信息
数据来源 国际轨道数据
星历时间: 2024-09-01T06:25:46+0800
轨道信息已过期559天
半长轴: 6591.156km
偏心率: 0.0007985
轨道倾角: 53.033°
近地点辐角 1.360°
升交点赤经 290.201°
平近点角 135.516°
近地点: 207.757km
远地点: 218.285km
周期: 88.757分钟
每日圈数: 16.224093
详细信息
固有亮度:
5
最大亮度:
2.5
卫星平台:
Starlink V1.0
覆盖范围:
全球
运营商:
太空探索技术公司
运营商所在国:
美国
制造商(研发单位):
太空探索技术公司
制造商所在国:
美国
使用方式:
暂无
卫星简介
星链(Starlink)计划是由太空探索技术公司(SpaceX)提出的一个巨型低轨卫星互联网星座项目,计划在2019年至2024年间在太空搭建由约1.2万颗卫星组成的“星链”网络,其中1584颗将部署在地球上空550千米处的近地轨道,并从2020年开始工作。该卫星仍在工作。